Weather in Berestye

Belarus     51°49′51″N   23°43′26″E
temp.,
°C
wind,
m/s
gust,
m/s
humid.,
%
clouds,
%
prec.,
mm/h
press.,
hPa
HPBL,
m
1 august, sun
sun100:00+18sw41091100 0.1 1009254
03:00+16ssw38946 0.1 1009177
06:00+16wsw24965 0.0 100977
09:00+21sw22755 0.0 1009272
12:00+27s34489 0.0 10091541
15:00+29ssw5738100 0.0 10072379
18:00+22w2371100 0.2 100770
21:00+19n3588100 1.1 1005104
2 august, mon
mon200:00+18se61195100 27.1 1005402
03:00+17sw2495100 28.4 1004131
06:00+18wsw3897100 1.4 1004547
09:00+15wnw6995100 2.1 1006560
12:00+15wnw6991100 0.2 1008647
15:00+16w5891100 0.4 1009534
18:00+19wsw587666 0.1 1010945
21:00+17wsw368473 0.8 1011112
3 august, tue
tue300:00+14w35926 0.0 101279
03:00+13wsw3993100 0.0 1013205
06:00+12wsw49915 0.0 1014185
09:00+16w577313 0.0 1015382
12:00+18w57656 0.0 1016663
15:00+21wnw574699 0.0 10152063
18:00+20wnw375876 0.0 1015664
21:00+17w226541 0.0 101612
4 august, wed
wed400:00+15s2264100 0.0 101611
03:00+14sse236986 0.0 101632
06:00+13se357515 0.0 101673
09:00+18sse2473100 0.0 1016211
12:00+16ne458198 0.7 1016303
15:00+21ese566926 1.1 1015940
18:00+23sse2363100 0.8 1014648
21:00+19se1177100 1.6 101311
5 august, thu
thu500:00+17ne1188100 0.9 101421
03:00+16sse3394100 1.1 101351
06:00+15se2294100 0.0 101235
09:00+19se2280100 0.0 1012214
12:00+23ese2364100 0.0 1011781
15:00+24e2463100 0.0 1009452
18:00+26e3658100 0.1 1006898
21:00+18s4894100 8.8 1007282